Location: Newark
(55.5030°N, 22.7200°E)
Time: 07:07:49
(UTC+00:00)

Altair - Visible Passes

Search period start: 26 May 2020 00:00
Search period end: 05 June 2020 00:00
Orbit: 1501 x 1683 km, 47.2° (Epoch: 25 May)

Date Brightness Start Highest point End Pass type
(mag) Time Alt. Az. Time Alt. Az. Time Alt. Az.
26 May 7.8 01:02:16 10° WSW 01:12:02 54° S 01:21:42 10° ESE visible
26 May 8.5 20:33:15 10° S 20:40:16 22° SE 20:47:22 10° E visible
26 May 7.9 22:33:49 10° SW 22:43:08 44° SSE 22:52:30 10° E visible
27 May 7.8 00:37:07 10° WSW 00:46:53 55° S 00:56:35 10° ESE visible
27 May 8.6 20:08:34 10° S 20:15:15 21° SE 20:22:00 10° E visible
27 May 7.9 22:08:48 10° SW 22:18:01 43° SSE 22:27:19 10° E visible
28 May 7.8 00:11:59 10° WSW 00:21:44 55° S 00:31:27 10° ESE visible
28 May 8.6 19:43:57 10° S 19:50:15 19° SE 19:56:36 10° E visible
28 May 8.0 21:43:48 10° SW 21:52:55 41° SSE 22:02:08 10° E visible
28 May 7.8 23:46:50 10° WSW 23:56:35 55° S 00:06:20 10° ESE visible
29 May 8.0 21:18:49 10° SW 21:27:49 40° SSE 21:36:56 10° E visible
29 May 7.7 23:21:44 10° WSW 23:31:26 54° S 23:41:11 10° ESE visible
30 May 8.0 20:53:51 10° SSW 21:02:43 38° SSE 21:11:44 10° E visible
30 May 7.7 22:56:37 10° WSW 23:06:17 54° S 23:16:02 10° ESE visible
31 May 8.1 20:28:54 10° SSW 20:37:38 36° SSE 20:46:31 10° E visible
31 May 7.7 22:31:30 10° WSW 22:41:09 53° S 22:50:53 10° E visible
01 Jun 7.8 00:35:25 10° W 00:44:58 49° SSW 00:54:29 10° SE visible
01 Jun 8.1 20:03:58 10° SSW 20:12:33 35° SSE 20:21:18 10° E visible
01 Jun 7.7 22:06:24 10° WSW 22:16:00 53° S 22:25:43 10° E visible
02 Jun 7.8 00:10:15 10° W 00:19:51 50° SSW 00:29:25 10° SE visible
02 Jun 7.7 21:41:18 10° WSW 21:50:51 52° S 22:00:33 10° E visible
02 Jun 7.8 23:45:06 10° W 23:54:42 51° SSW 00:04:20 10° ESE visible
03 Jun 7.8 21:16:13 10° WSW 21:25:43 51° SSE 21:35:23 10° E visible
03 Jun 7.8 23:19:56 10° W 23:29:34 52° SSW 23:39:14 10° ESE visible
04 Jun 7.8 20:51:09 10° SW 21:00:35 50° SSE 21:10:12 10° E visible
04 Jun 7.7 22:54:47 10° W 23:04:25 53° S 23:14:07 10° ESE visible
